Regional Weather Roundup
Issued by NWS

Home | Current Version | Previous Version | Graphics & Text | Print | Product List | Glossary On
Versions: 1 2 3 4 5 6 7 8 9 10 11 12 13 14 15 16 17 18 19 20 21 22 23 24 25 26 27
000
ASUS45 KBOU 241110
RWRCO

WEATHER ROUNDUP FOR COLORADO
NATIONAL WEATHER SERVICE DENVER/BOULDER CO
400 AM MST FRI NOV 24 2017

NOTE: "FAIR" INDICATES FEW OR NO CLOUDS BELOW 12000 FEET WITH NO
SIGNIFICANT WEATHER AND/OR OBSTRUCTIONS TO VISIBILITY.

COZ001>005-013-030-031-241200-
...NORTHWEST COLORADO...

CITY           SKY/WX    TMP DP  RH WIND       PRES   REMARKS
CRAIG          FAIR      32  30  92 CALM      30.06F
HAYDEN         MOCLDY    37  32  82 E8        30.08F
MEEKER         MOCLDY    41  32  70 E3        30.08F
RABBIT EARS PA CLOUDY    32  27  80 W9        30.19F WCI  24
STEAMBOAT SPGS MOCLDY    31  30  96 CALM      30.08F
WALDEN         FAIR      39  25  56 SE6       30.07F
$$

COZ006>008-011-241200-
...WEST CENTRAL VALLEYS...

CITY           SKY/WX    TMP DP  RH WIND       PRES   REMARKS
GRAND JUNCTION FAIR      38  33  82 E3        30.08F
MONTROSE       FAIR      34  27  75 SE6       30.13F WCI  29
EAGLE          FAIR      30  27  88 SE3       30.14F
RIFLE          FAIR      35  34  96 VRB5      30.12F WCI  31
DELTA          FAIR      37  29  70 CALM      30.11F
NUCLA          FAIR      37  19  48 SE7       30.17F
$$

COZ017>023-064>068-241200-
...SOUTHWEST COLORADO...

CITY           SKY/WX    TMP DP  RH WIND       PRES   REMARKS
DURANGO        FAIR      26  22  84 N3        30.18F
CORTEZ         FAIR      27  21  78 NE3       30.16F
PAGOSA SPRINGS FAIR      29  27  92 CALM      30.21S
TELLURIDE      FAIR      39  15  36 SE7       30.26F
WOLF CREEK PAS FAIR      32  18  55 SW13      30.38F WCI  22
$$

COZ009-010-012-014-032>034-037-058>063-241200-
...CENTRAL COLORADO...

CITY           SKY/WX    TMP DP  RH WIND       PRES   REMARKS
ASPEN          FAIR      35  23  61 SE3       30.13F
BUENA VISTA    FAIR      51  13  22 NW10G22   30.09R
COPPER MTN     NOT AVBL
BERTHOUD PASS  FAIR      32  21  64 W47G72    30.19F WCI  15
COTTONWOOD PAS FAIR      52  14  22 W36G58    30.11F
GUNNISON       FAIR      23  22  96 CALM      30.22F
KREMMLING      FAIR      37  32  81 NE8       30.10F
LEADVILLE      FAIR      38  11  32 VRB7      30.17F
MONARCH PASS   FAIR      32  16  51 W31G37    30.41R WCI  17
SALIDA         FAIR      51  19  28 SW13      30.12S
SUNLIGHT       CLOUDY    34  21  60 SW14G24   30.28F WCI  24
WILKERSON PASS FAIR      36   1  23 W16G26    30.19S
$$

COZ069>075-241200-
...SAN LUIS VALLEY/SANGRE DE CRISTO MOUNTAINS...

CITY           SKY/WX    TMP DP  RH WIND       PRES   REMARKS
ALAMOSA        FAIR      17  13  84 SW3       30.14F
DEL NORTE      FAIR      28  13  53 SW5       30.16F WCI  23
LA VETA PASS   FAIR      36  21  55 SW30G43     N/A
SAGUACHE       FAIR      27  19  74 NW7       30.16F WCI  19
$$

COZ035-036-038>040-241200-
...NORTHERN COLORADO FRONT RANGE...

CITY           SKY/WX    TMP DP  RH WIND       PRES   REMARKS
DENVER INTL AP FAIR      56  17  21 W6        29.85R
DMNS CITY PARK   N/A     54  17  23 E7G14     29.85S
AURORA         PTCLDY    54  18  24 NW7       29.88R
FRONT RANGE AP FAIR      59  20  21 SW9       29.87S
ERIE MUNI ARPT FAIR      55  19  24 CALM      29.88R
BOULDER MUN AP FAIR      61  19  20 SE7       29.83R
CENTENNIAL     FAIR      44  22  41 SE9       29.89R
BROOMFIELD     FAIR      64  14  14 W18       29.88R
FORT COLLINS   FAIR      44  30  57 W3        29.82F
LONGMONT       FAIR      61  19  19 SW10G18   29.83F
$$

COZ041-046-047-076>085-087-088-241200-
...PIKES PEAK/PALMER DIVIDE AND SOUTHERN FOOTHILLS...

CITY           SKY/WX    TMP DP  RH WIND       PRES   REMARKS
COLO. SPRINGS  MOCLDY    49  13  23 N10       29.93F
A. F. ACADEMY  FAIR      45  12  26 NW8       29.94F
SCHRIEVER AFB  FAIR      53  10  17 NW3       29.93F
CHEYENNE MTN   FAIR      58   9  14 W5        29.91F
ELLICOTT         N/A    N/A N/A N/A CALM      29.91F
FALCON         FAIR      46  10  23 W10       29.96F
FORT CARSON    FAIR      45  21  38 NW7       29.89F
LIMON          FAIR      37  25  61 NW9       29.86F
MONUMENT HILL  FAIR      48  14  25 SW10      29.96F
CANON CITY     FAIR      46  21  36 MISG      29.90F
WALSENBURG     FAIR      55  25  30 SW14G20   29.96F
TRINIDAD       FAIR      52  19  27 W12       29.92F
$$

COZ042>045-048>051-090-091-241200-
...NORTHEAST COLORADO...

CITY           SKY/WX    TMP DP  RH WIND       PRES   REMARKS
GREELEY ARPT   FAIR      35  29  78 NE8       29.82F WCI  29
AKRON          FAIR      51  23  33 SW8       29.81F
BURLINGTON     FAIR      44  31  60 W7        29.78F
WRAY           NOT AVBL
YUMA           FAIR      41  28  60 W9        29.79S
STERLING       FAIR      41  32  70 S6        29.78S
HOLYOKE        FAIR      46  32  57 W12       29.75F
FORT MORGAN    FAIR      47  24  40 NW6       29.82S
$$

COZ086-089-092>099-241200-
...SOUTHEAST COLORADO...

CITY           SKY/WX    TMP DP  RH WIND       PRES   REMARKS
PUEBLO         FAIR      49  26  41 W15       29.86F
LA JUNTA       FAIR      43  28  55 S3        29.83F
LAMAR          FAIR      42  30  62 SW8       29.80F
SPRINGFIELD      N/A     44  26  49 NW12      29.84F
$$




USA.gov is the U.S. government's official web portal to all federal, state and local government web resources and services.